Details From LSZS - Samedan
To LSZR - St.Gallen-Altenrhein
Flight Number -
Tags generated
Created
Modified
Stats Distance 59 nm / 109 km
Max Altitude 1,700 ft / 518 m
Waypoints 3
Social Downloads 0
Likes 0
Share VATSIM

Download

Looking for another format? Having issues loading an existing format? Contact us
Advertisement - Login to hide

Notes

Basic altitude profile: - Ascent Rate: 5300ft/min - Ascent Speed: 150kts - Cruise Altitude: 15000ft - Cruise Speed: 200kts - Descent Rate: 1300ft/min - Descent Speed: 150kts Options: - Use NATs: yes - Use PACOTS: yes - Use low airways: yes - Use high airways: yes

Route

LSZS VEBEG LSZR

ID Type Via Altitude Latitude Longitude Leg Dist Tot Dist Heading (true) Name
O LSZS APT - 0 ft / 0 m 46.53421˚ 9.88394˚ - 0 nm - Samedan
VEBEG FIX - 1,700 ft / 518 m 47.35500˚ 9.59833˚ 50 nm 50 nm 347° / 347° -
O LSZR APT - 0 ft / 0 m 47.48556˚ 9.56074˚ 7 nm 58 nm 349° / 349° St.Gallen-Altenrhein

Altitude Profile

Advertisement - Login to hide

LSZS

Details ICAO LSZS (SMV)
Name Samedan
Region Switzerland
Timezone Europe/Zurich (UTC+1.0)
Stats Elevation 5,600 ft / 1,707 m (AMSL)
Location 46.534207° 9.883938°
Runways 1
Magnetic Variation 2.656° E

METAR

LSZS 131120Z 03002KT CAVOK M10/M14 Q1013 RMK J

Decode

TAF

Not found

Departure Runways

ID Width Length Bearing (true) Bearing (mag) Surface Threshold Offset Overrun Length
03 131 ft / 40 m 6,059 ft / 1,847 m 29.10° 26.44° Asphalt 0 ft / 0 m 0 ft / 0 m
21 131 ft / 40 m 6,059 ft / 1,847 m 209.10° 206.44° Asphalt 361 ft / 110 m 0 ft / 0 m

LSZR

Details ICAO LSZR (ACH)
Name St.Gallen-Altenrhein
Region Switzerland
Timezone Europe/Zurich (UTC+1.0)
Stats Elevation 1,306 ft / 398 m (AMSL)
Location 47.485559° 9.560741°
Runways 2
Magnetic Variation 2.596° E

METAR

LSZR 131120Z 13006KT 080V180 CAVOK 04/M05 Q1014 NOSIG RMK G

Decode

TAF

Not found

Destination Runways

ID Width Length Bearing (true) Bearing (mag) Surface Threshold Offset Overrun Length
10 98 ft / 30 m 4,909 ft / 1,496 m 98.79° 96.19° Asphalt 328 ft / 100 m 0 ft / 0 m
10L 75 ft / 23 m 1,970 ft / 601 m 98.80° 96.20° Grass 0 ft / 0 m 0 ft / 0 m
28 98 ft / 30 m 4,909 ft / 1,496 m 278.81° 276.21° Asphalt 246 ft / 75 m 0 ft / 0 m
28R 75 ft / 23 m 1,970 ft / 601 m 278.80° 276.20° Grass 0 ft / 0 m 0 ft / 0 m

Approach Navaids

Runway Type Ident Frequency Range Bearing (true) Bearing (mag) Slope Elevation
10 Localiser IAL 108.75 MHz 18 nm / 33 km 99.82° 97.22° - 1,306 ft / 398 m (AMSL)
10 Glidescope IAL 108.75 MHz 10 nm / 19 km 98.80° 96.20° 4.00° 1,333 ft / 406 m (AMSL)
10 DME IAL 108.75 MHz 18 nm / 33 km - - - 1,333 ft / 406 m (AMSL)

Popular Alternatives